Domov               UVHVVR             MKGP            O straneh              
ZDRAVSTVENO VARSTVO RASTLIN
  MREŽA AGROMET. POSTAJ
 ► PROGNOSTIČNA OBVESTILA
AGROMETEOROLOŠKI PODATKI -
ARSO
OBVLADOVANJE TVEGANJ ZARADI
NEUGODNIH VREMENSKIH RAZMER
  ► NARAVNE NESREČE
  ► SUŠA/MOČA
  ► NAMAKANJE
  ► ŽLED (gozdarstvo)
KARTOGRAFSKI PRIKAZI
SPLETNE POVEZAVE
PROJEKTI IN PUBLIKACIJE

AGROMETEOROLOŠKA MREŽA: VREMENSKE POSTAJE IN FENOLOŠKA OPAZOVANJA

Pregled podatkov za lokacijo Lendava, meteorološka postaja 42840

Pregled senzorjev na lokaciji

ID Ime Zadnja
vrednost
Datum
zadnje
spremembe
Tip
senzorja
2103 Omočenost lista (U) 0 U 18.10.2017 17:29 A730WET
2104 Temperatura 2 m ( °C) 20,95 °C 18.10.2017 17:30 50YA
2105 Relativna vlaga 2 m (% RH) 51,09 % RH 18.10.2017 17:30 50YA
2106 Padavine 0.2 mm (mm) 0 mm 18.10.2017 17:30 Rain-O-Matic

Pregled podatkov zadnjih 24 ur

Zap.
št.
Datum in čas Lendava
Omočenost
lista
Padavine
0.2
mm
Relativna
vlaga
2
m
Temperatura
2
m
0 18.10.2017 16:30 0 0 51,09 20,95
1 18.10.2017 16:00 0 0 45,17 22,05
2 18.10.2017 15:30 0 0 36,31 23,01
3 18.10.2017 15:00 0 0 32,08 23,36
4 18.10.2017 14:30 0 0 31,31 23,36
5 18.10.2017 14:00 0 0 32,65 23,34
6 18.10.2017 13:30 0 0 32,64 23,37
7 18.10.2017 13:00 0 0 31,89 23,22
8 18.10.2017 12:30 0 0 31,94 22,64
9 18.10.2017 12:00 0 0 44,55 21,95
10 18.10.2017 11:30 0 0 66,47 19,67
11 18.10.2017 11:00 0 0 76,78 17,6
12 18.10.2017 10:30 0 0 79,72 16,49
13 18.10.2017 10:00 0 0 81,85 15,52
14 18.10.2017 09:30 0 0 86,2 14,51
15 18.10.2017 09:00 0 0 86,96 14,43
16 18.10.2017 08:30 1 0 89,66 13,81
17 18.10.2017 08:00 5 0 93,24 13,05
18 18.10.2017 07:30 10 0 95,95 12,41
19 18.10.2017 07:00 10 0 96,12 12,3
20 18.10.2017 06:30 10 0 96,14 12,35
21 18.10.2017 06:00 10 0 95,71 12,43
22 18.10.2017 05:30 10 0 93,37 12,89
23 18.10.2017 05:00 10 0 94,02 12,97
24 18.10.2017 04:30 10 0 94,15 12,97
25 18.10.2017 04:00 10 0 91,33 13,43
26 18.10.2017 03:30 10 0 91,03 13,59
27 18.10.2017 03:00 10 0 89,59 14
28 18.10.2017 02:30 10 0 89,37 14,2
29 18.10.2017 02:00 10 0 88,94 14,4
30 18.10.2017 01:30 5 0 85,07 15,03
31 18.10.2017 01:00 3 0 82,19 15,51
32 18.10.2017 00:30 3 0 82,37 15,54
33 18.10.2017 00:00 2 0 80,49 15,63
34 17.10.2017 23:30 1 0 78,01 16,05
35 17.10.2017 23:00 1 0 74,63 16,41
36 17.10.2017 22:30 1 0 75,74 16,35
37 17.10.2017 22:00 1 0 74,74 16,32
38 17.10.2017 21:30 1 0 73,83 16,35
39 17.10.2017 21:00 1 0 78,07 16,01
40 17.10.2017 20:30 1 0 77,04 16,33
41 17.10.2017 20:00 1 0 75,88 16,63
42 17.10.2017 19:30 1 0 74,41 17,03
43 17.10.2017 19:00 1 0 73,5 17,45
© 2011 Ministrstvo za kmetijstvo, gozdarstvo in prehrano. Vse pravice pridržane.